Date,TemperatureHighF,TemperatureAvgF,TemperatureLowF,DewpointHighF,DewpointAvgF,DewpointLowF,HumidityHigh,HumidityAvg,HumidityLow,PressureMaxIn,PressureMinIn,WindSpeedMaxMPH,WindSpeedAvgMPH,GustSpeedMaxMPH,PrecipitationSumIn
2013-1-1,48,39,33,38,32,26,88,76,62,30.26,30.18,16,4,16,0.00
2013-1-2,52,37,27,40,30,22,86,76,60,30.23,30.12,13,2,13,0.00
2013-1-3,52,38,26,41,31,22,86,77,64,30.25,30.14,12,2,12,0.01
2013-1-4,52,40,30,41,33,26,86,75,56,30.27,30.16,14,3,14,0.00
2013-1-5,54,43,32,45,38,28,92,82,71,30.25,30.05,13,2,13,0.13
2013-1-6,48,43,35,45,40,32,93,90,87,30.18,30.04,9,2,9,0.22
2013-1-7,55,41,32,48,38,30,93,87,74,30.25,30.14,5,1,5,0.01
2013-1-8,57,44,35,45,38,32,93,80,62,30.22,30.12,9,2,10,0.00
2013-1-9,53,44,35,48,39,32,91,84,74,30.14,29.95,15,3,15,0.01
2013-1-10,49,41,36,38,33,29,84,74,54,30.16,30.04,10,3,10,0.00
2013-1-11,49,40,30,38,33,25,85,76,61,30.23,30.10,10,3,10,0.02
2013-1-12,46,38,30,33,27,23,83,67,45,30.23,30.12,9,2,9,0.00
2013-1-13,45,36,26,28,21,14,78,57,33,30.24,30.15,11,3,11,0.00
2013-1-14,46,37,30,23,19,13,63,48,33,30.39,30.19,13,3,13,0.00
2013-1-15,49,37,26,31,25,18,78,63,42,30.45,30.37,12,2,12,0.00
2013-1-16,52,38,28,35,28,22,80,68,51,30.42,30.24,14,3,14,0.00
2013-1-17,57,41,28,36,30,23,89,66,43,30.25,30.14,13,3,13,0.01
2013-1-18,58,42,30,39,30,24,83,65,39,30.22,30.13,12,3,12,0.00
2013-1-19,57,42,28,41,32,22,86,67,51,30.24,30.15,16,3,16,0.00
2013-1-20,58,42,29,38,30,23,83,64,38,30.22,30.12,14,3,14,0.00
2013-1-21,58,43,28,42,33,22,91,68,52,30.17,30.08,13,3,13,0.01
2013-1-22,60,45,31,44,35,25,84,71,53,30.12,30.00,10,2,10,0.00
2013-1-23,54,48,43,48,43,37,88,82,76,30.09,29.94,8,1,8,0.09
2013-1-24,54,51,49,50,48,46,91,89,86,30.18,30.05,9,2,10,0.58
2013-1-25,64,55,49,58,51,46,93,87,78,30.18,30.03,10,2,10,0.12
2013-1-26,55,49,44,51,44,39,93,82,64,30.05,29.97,18,5,18,0.01
2013-1-27,54,45,37,42,37,32,88,75,45,30.15,30.04,12,3,12,0.00
2013-1-28,55,44,34,42,37,29,87,76,53,30.27,30.13,9,2,9,0.00
2013-1-29,56,45,36,46,39,33,89,80,66,30.33,30.24,8,2,8,0.01
2013-1-30,62,50,40,45,38,32,83,65,41,30.34,30.25,14,4,14,0.00
2013-1-31,61,47,34,48,38,28,84,73,59,30.28,30.17,13,3,13,0.00